GFSNW_con_sbcape_114.txt.gz
CAPE
21 8 13 0 0 0 0 0 2 12 6 0 0 0 0 0 1 1 7 9 17 20 38 27 53 91 49 31 50 46 11 54 89 116 123 154 4 23 65 51 4 6 26 33
8 16 24 6 1 0 0 0 2 14 23 2 0 0 0 0 0 0 10 18 29 38 35 35 28 16 1 13 11 30 44 45 27 88 204 55 41 13 72 120 66 70 57 21
18 22 27 16 14 0 0 0 7 10 28 12 0 2 1 0 0 0 7 7 25 17 13 35 14 21 1 6 0 38 33 130 60 32 69 100 14 4 60 25 133 28 61 73
12 30 27 24 22 2 2 2 2 4 28 22 10 5 0 0 0 0 0 23 19 8 9 4 16 3 0 0 0 1 24 4 62 28 9 3 45 59 5 65 14 101 13 11
8 35 19 31 47 4 8 7 1 1 3 14 26 5 1 0 1 0 0 7 10 0 14 27 11 5 1 1 0 4 7 7 21 0 0 22 0 68 48 59 90 60 24 1
13 40 46 39 50 17 22 3 2 3 2 5 4 4 0 2 0 0 0 11 1 1 18 2 0 0 0 4 8 11 21 9 5 7 8 1 29 92 45 12 56 149 192 204
64 37 68 66 44 9 0 0 15 15 3 0 1 0 0 4 8 3 0 1 3 0 0 0 41 61 44 28 10 7 14 27 3 18 4 10 9 9 17 4 2 82 80 311
53 53 68 77 53 2 1 4 31 17 9 0 2 4 10 3 2 2 0 0 2 1 0 82 71 59 24 6 6 19 6 35 29 24 31 2 1 0 3 10 39 89 99 311
37 71 69 65 56 31 14 35 49 31 20 0 0 3 4 6 7 8 3 2 0 15 60 77 85 42 20 25 23 10 1 15 48 18 7 4 0 0 0 2 138 163 207 320
58 67 65 82 52 61 50 34 58 53 38 9 6 15 16 22 18 10 5 6 0 13 83 106 77 72 28 48 26 13 21 27 32 29 11 0 0 0 25 112 144 71 166 1
76 65 67 73 52 63 72 53 60 58 43 21 1 0 6 13 9 17 19 8 24 33 61 73 32 60 34 42 5 18 36 49 34 23 13 1 0 0 16 30 39 12 13 22
71 55 68 43 58 68 57 50 41 55 59 40 0 2 0 0 7 31 19 16 8 31 43 29 31 43 28 24 31 51 58 47 96 36 40 24 36 22 24 18 10 14 18 40
69 72 69 45 61 67 43 77 54 55 38 12 12 0 3 0 0 0 29 15 15 43 26 55 12 14 31 36 23 23 16 9 45 71 66 25 7 2 9 4 5 14 3 1
84 77 77 84 56 64 53 69 88 24 41 38 13 0 0 0 0 0 0 2 25 40 33 35 46 31 28 38 8 9 15 26 24 31 8 6 5 9 11 12 5 1 2 0
89 81 83 43 49 69 125 107 96 62 54 33 19 1 0 0 0 0 1 7 17 8 39 26 24 22 31 20 28 35 67 16 12 28 31 25 21 22 16 6 11 13 1 0
81 85 60 53 60 79 89 74 85 83 54 57 34 5 0 0 0 3 10 17 17 10 14 6 23 1 31 50 28 37 24 18 14 15 22 15 14 17 27 12 8 6 5 6
70 99 64 50 68 115 63 50 30 15 82 59 9 21 2 3 6 9 7 13 36 23 17 25 26 46 70 37 18 5 5 12 22 10 4 9 8 11 12 29 16 7 1 3
68 68 60 62 57 50 56 36 8 48 44 43 14 17 18 10 13 19 5 5 26 25 49 42 46 39 50 40 9 4 0 13 1 4 2 5 10 12 7 7 18 3 1 0
75 67 67 68 63 69 39 24 0 19 36 58 18 24 53 10 22 22 23 7 20 26 39 28 55 41 43 6 2 3 3 0 0 3 0 0 0 0 1 3 4 4 3 0
70 115 47 65 34 11 103 85 86 59 27 36 8 21 31 45 37 113 233 35 41 55 41 37 51 30 3 5 4 4 2 0 0 0 0 0 0 0 0 1 2 6 4 3
53 46 41 75 29 93 50 88 93 27 41 21 7 7 16 28 41 30 92 88 35 66 38 37 41 12 6 4 3 5 1 0 0 0 0 0 0 0 0 1 1 1 2 4
9 35 28 21 120 110 104 77 19 16 2 14 1 3 9 34 63 90 62 40 55 29 25 41 33 7 5 3 3 2 1 0 0 0 0 0 0 0 1 2 4 5 4 4
41 82 18 20 88 66 35 18 42 42 4 6 4 9 12 28 34 81 95 83 94 33 40 18 9 10 9 5 4 2 0 0 0 0 0 0 0 1 2 2 1 3 3 3
17 14 47 48 4 8 2 15 93 4 6 10 14 7 12 12 70 66 45 16 15 42 12 5 15 10 6 5 5 3 2 0 0 1 0 1 1 1 2 3 5 2 2 2
21 10 20 5 4 4 5 3 4 5 5 19 21 19 8 75 24 68 35 32 3 3 4 7 16 9 6 6 4 2 1 0 1 1 0 0 0 1 1 2 3 3 1 1
4 0 3 8 7 9 4 7 6 2 3 4 5 23 17 34 29 16 3 3 3 4 9 10 9 6 5 5 4 3 2 2 2 3 3 1 0 0 2 2 2 2 3 2
0 4 4 5 7 8 6 5 3 2 5 51 19 43 5 4 3 0 1 4 8 14 13 11 7 5 4 3 4 2 3 2 2 1 1 1 1 1 2 3 5 4 4 2

GFSNW_con_sbcape_117.txt.gz
CAPE
21 9 3 0 0 0 0 0 9 7 2 2 0 0 0 0 0 0 0 0 13 22 22 15 37 68 72 48 38 20 36 66 52 0 0 123 341 51 59 70 55 45 19 7
22 11 3 7 0 0 1 1 1 4 8 13 0 0 0 0 0 0 1 14 24 35 28 29 43 59 59 46 38 33 16 33 41 18 1 2 57 142 39 75 83 48 77 17
18 19 22 4 0 0 0 0 9 5 8 2 1 0 0 0 0 0 0 12 21 38 12 33 50 63 59 26 13 1 22 35 64 44 67 14 20 27 51 84 223 60 58 32
18 32 23 11 10 0 6 10 10 6 13 17 0 0 0 0 0 0 14 3 30 26 14 18 44 60 33 7 3 5 31 19 28 10 9 2 1 111 10 122 86 138 98 68
27 36 42 30 20 8 24 10 1 0 2 6 7 2 0 0 0 0 0 15 10 24 22 33 29 42 28 0 1 6 33 12 23 6 13 15 60 176 27 3 0 37 17 21
23 31 50 50 67 7 13 10 3 6 1 5 7 4 0 0 0 0 0 3 10 6 11 9 2 0 0 3 28 21 31 44 50 4 3 1 164 35 107 112 154 34 109 108
35 29 47 55 72 3 25 19 9 11 14 0 0 0 0 0 5 7 3 1 4 0 1 0 6 49 85 93 63 50 33 38 33 14 7 63 26 3 57 106 85 88 75 37
2 41 50 57 61 38 36 24 21 11 17 0 0 0 2 6 8 1 0 1 5 4 0 28 40 101 99 81 72 42 53 48 47 21 18 7 7 4 0 2 75 260 144 248
23 55 47 53 65 57 36 31 25 22 20 1 0 3 5 9 8 11 12 11 14 4 44 61 57 81 93 53 41 50 47 63 72 33 21 7 9 0 1 5 178 25 14 220
54 69 54 66 56 54 33 42 48 27 32 11 0 3 9 9 11 20 21 19 14 15 94 92 108 92 18 80 59 25 51 70 69 80 54 19 28 1 6 65 46 34 6 10
59 54 62 69 72 72 78 66 60 49 31 24 7 8 10 9 13 18 30 21 44 43 86 97 104 84 67 51 42 45 17 74 131 77 36 28 12 0 27 66 48 3 17 8
54 52 61 67 72 82 74 82 64 60 67 36 42 29 22 17 15 25 31 33 4 31 70 114 67 102 84 58 102 103 101 34 70 34 45 27 18 17 27 11 13 6 14 47
44 61 66 73 52 66 63 101 67 62 41 24 13 4 15 16 11 16 33 27 27 36 29 83 58 19 27 73 34 28 10 35 37 28 12 20 8 8 12 14 11 7 0 3
55 65 62 57 84 104 62 90 90 51 48 57 23 15 30 22 22 19 16 28 41 40 48 71 60 51 34 46 31 7 34 63 24 22 6 3 1 20 24 10 6 10 4 2
52 71 59 68 65 90 132 166 107 77 59 63 44 34 14 17 19 29 37 37 34 24 32 67 41 35 43 41 20 10 22 10 28 27 33 24 13 25 32 14 18 11 13 1
51 60 62 66 63 109 118 22 96 89 80 45 55 34 32 31 22 28 34 43 22 19 40 29 17 4 42 39 37 18 13 20 15 7 28 28 16 31 15 30 23 25 15 21
55 66 61 70 83 129 67 63 82 55 75 68 34 41 29 10 44 32 15 13 48 40 47 36 31 45 89 44 43 18 7 5 12 5 13 18 7 11 22 28 35 21 6 1
68 74 55 78 77 64 68 95 30 70 53 67 35 31 67 22 16 12 14 33 43 50 57 38 45 61 68 36 18 1 2 4 2 1 1 1 1 4 6 6 5 6 4 2
84 70 68 118 70 84 78 0 0 7 34 61 34 39 102 21 47 98 23 24 50 29 48 36 49 55 38 12 4 2 2 0 0 0 2 0 0 0 0 2 4 6 4 5
77 112 27 45 86 63 35 70 74 68 79 57 21 32 74 105 86 94 140 49 58 129 46 44 68 59 2 2 3 4 1 0 0 0 0 0 0 0 0 0 2 4 9 6
68 93 81 143 103 120 84 87 48 50 32 21 6 7 94 97 104 65 175 129 203 134 135 95 83 23 8 4 4 3 1 0 0 0 0 0 0 0 0 2 3 4 5 8
54 114 78 119 85 45 104 72 40 39 14 50 9 11 27 42 49 129 133 45 30 42 129 58 79 12 2 2 3 2 1 0 0 0 0 0 0 0 1 4 7 7 6 5
128 112 131 124 59 49 35 53 40 48 60 108 37 11 21 40 52 122 37 18 67 175 120 68 10 9 10 5 4 3 1 0 0 0 0 0 0 1 2 4 6 3 6 6
55 31 37 107 65 72 59 59 91 119 166 99 7 9 37 34 50 52 189 53 23 150 160 12 15 17 6 3 4 5 4 2 1 1 1 1 2 2 2 2 4 3 5 6
36 13 89 47 19 10 10 10 12 5 14 42 56 77 18 32 45 56 70 83 83 5 8 8 12 7 5 7 5 4 3 1 3 3 2 1 2 4 5 5 6 5 3 4
8 7 14 12 16 9 12 23 9 4 5 57 86 73 6 38 54 46 34 8 20 10 14 14 8 4 7 6 6 5 5 6 6 5 4 3 1 3 6 4 6 5 5 5
4 3 6 9 9 12 9 9 9 4 2 132 49 46 59 16 19 6 7 6 11 14 15 11 12 9 8 6 6 6 6 6 6 4 3 4 4 1 5 7 7 7 6 6

GFSNW_con_sbcape_120.txt.gz
CAPE
25 14 2 0 0 0 0 1 6 0 0 1 0 0 0 0 0 0 0 0 0 0 1 3 5 21 27 22 35 0 23 45 7 0 0 1 0 0 49 107 28 59 47 0
29 16 7 2 0 0 0 0 3 0 0 5 0 0 0 0 0 0 0 0 0 1 1 2 1 9 10 16 3 26 2 1 35 2 0 0 0 0 0 118 238 81 85 3
18 29 13 12 0 0 1 8 12 0 0 0 0 5 0 0 0 0 0 0 0 0 11 10 4 6 8 13 10 0 7 17 61 46 37 17 1 0 0 153 89 66 46 12
34 23 13 20 0 0 0 15 3 4 8 1 0 0 0 0 0 0 0 0 0 0 7 19 7 5 4 0 44 0 38 31 38 20 5 0 1 17 58 130 132 50 49 41
44 15 27 33 5 0 3 2 1 0 0 5 3 1 0 0 0 0 0 0 0 0 1 11 6 2 0 0 0 0 13 14 37 10 0 1 0 5 31 12 20 0 56 75
40 28 46 51 26 3 0 5 0 0 0 4 8 4 0 0 0 0 0 0 0 0 2 1 0 0 0 0 0 0 43 35 42 8 0 0 14 6 0 2 102 266 245 101
43 34 49 51 41 0 5 18 10 3 1 2 1 1 4 2 0 0 0 0 0 0 1 0 0 0 0 2 33 70 64 59 47 22 6 17 7 3 0 2 6 23 6 121
32 25 41 38 40 25 0 12 4 18 18 7 1 2 1 0 0 0 0 0 0 4 0 0 0 0 4 62 54 69 21 86 40 23 18 0 3 2 0 0 3 7 17 11
27 6 41 49 44 27 14 45 14 10 21 5 5 3 1 1 1 1 1 1 0 2 4 9 15 22 25 15 6 81 73 92 34 82 17 15 26 0 7 1 20 24 24 10
36 0 8 58 57 26 20 39 25 26 35 0 0 1 6 4 0 0 5 9 1 7 14 25 29 35 39 37 36 22 43 58 59 71 36 45 21 0 4 0 30 28 11 14
44 17 29 55 54 39 51 44 46 40 29 6 16 0 5 1 0 3 8 3 7 5 26 26 49 47 41 21 9 41 29 20 21 8 39 16 13 1 11 40 10 16 4 10
45 6 50 52 52 57 48 53 63 56 67 25 10 7 9 4 0 7 14 19 12 8 12 58 34 38 39 13 19 59 76 66 143 70 45 22 4 16 11 13 12 11 9 30
33 30 52 62 60 43 22 97 121 48 35 8 0 0 0 0 0 1 14 14 20 41 36 36 34 26 26 38 41 20 6 15 26 0 6 6 4 5 11 9 10 14 7 6
12 34 47 54 40 43 22 92 111 59 34 36 11 3 16 10 18 1 1 0 20 43 36 38 42 35 24 48 25 33 76 17 6 11 0 0 0 10 13 14 11 6 11 6
38 49 51 56 33 58 66 173 121 76 48 54 22 21 41 14 13 23 22 17 14 24 43 44 24 28 39 35 72 180 23 14 2 5 16 16 8 30 7 29 18 16 15 16
52 41 70 65 57 83 115 43 87 91 74 51 33 23 37 25 29 26 18 26 27 34 53 45 15 5 10 12 12 3 1 1 4 4 5 11 4 21 7 18 12 13 6 16
17 22 57 65 67 126 53 45 60 38 115 69 35 16 7 30 31 27 29 33 46 40 50 26 25 15 80 54 25 32 3 7 4 4 4 4 0 0 2 9 2 9 5 2
23 38 53 71 76 87 43 97 16 92 61 46 40 22 59 15 44 40 30 33 34 38 29 31 34 37 72 35 5 3 3 1 1 0 1 1 5 5 5 3 3 3 3 1
22 57 71 62 69 62 72 2 81 103 57 41 35 13 58 29 28 47 15 26 37 14 38 15 32 31 42 72 3 1 0 0 0 0 0 0 0 0 0 0 3 3 4 6
62 52 6 26 31 8 1 50 73 62 48 54 18 22 36 40 93 57 93 32 23 45 6 5 37 29 1 1 0 0 1 0 0 0 0 0 0 0 0 0 1 2 3 4
39 60 58 108 45 70 67 40 50 44 29 21 0 1 42 160 99 96 109 76 56 71 122 67 67 18 6 2 0 0 0 0 0 0 0 0 0 0 0 1 0 2 3 5
27 113 85 72 54 73 90 54 33 31 2 17 5 10 26 68 88 107 148 52 31 7 143 95 25 8 1 0 0 0 0 0 0 0 0 0 0 0 1 2 3 2 3 0
191 46 18 31 58 31 20 28 37 28 43 112 72 27 28 81 92 154 119 17 17 175 162 37 7 1 2 2 1 0 0 0 0 0 0 0 0 1 1 4 3 2 2 1
19 10 3 22 31 29 19 78 76 178 286 242 125 26 66 107 67 48 5 46 24 121 83 6 9 4 6 3 0 0 0 0 1 1 0 0 1 1 1 2 4 3 3 5
93 14 68 54 66 23 39 137 97 83 238 140 99 51 37 32 46 24 41 74 84 5 2 7 11 9 5 4 2 2 2 2 4 1 0 0 0 2 1 2 3 2 3 2
3 5 9 30 35 13 75 10 10 3 54 162 123 71 25 33 52 34 23 24 9 7 7 7 5 6 4 5 4 3 3 6 4 3 3 0 0 0 0 0 1 0 0 0
1 23 6 7 15 8 4 5 6 2 3 139 63 20 37 49 48 13 0 4 6 8 11 7 6 5 6 6 4 0 6 5 5 1 1 0 0 0 1 2 0 0 0 0

GFSNW_con_sbcape_123.txt.gz
CAPE
11 34 11 0 0 0 0 0 4 0 0 0 0 0 0 0 0 0 0 0 0 0 0 0 0 0 0 2 0 0 3 0 0 0 0 0 0 0 7 23 4 0 1 0
40 28 4 2 0 0 0 0 0 0 0 0 0 0 0 0 0 0 0 0 0 0 0 0 0 0 0 0 8 0 0 0 0 0 0 0 0 0 0 15 8 27 0 0
23 10 9 1 0 0 0 0 0 0 0 0 0 0 0 0 0 0 0 0 0 0 0 0 1 0 0 0 1 10 0 0 7 0 0 0 0 0 0 28 54 58 0 13
31 29 19 1 0 0 0 0 0 0 0 0 0 0 0 0 0 0 0 0 0 0 0 0 0 0 0 0 0 0 0 0 0 0 0 0 0 8 9 11 48 24 25 16
41 27 20 14 0 0 0 0 0 0 0 0 0 0 0 0 0 0 0 0 0 0 0 0 0 0 0 0 0 0 0 0 0 0 0 0 0 0 8 6 11 70 65 66
28 28 45 44 0 0 0 0 0 0 0 0 0 0 0 0 0 0 0 0 0 0 0 0 0 0 0 0 0 0 0 0 0 0 0 0 4 54 19 4 20 18 5 26
61 50 54 33 11 0 0 0 0 0 0 0 0 0 1 2 0 0 0 0 0 0 0 0 0 0 0 0 0 0 0 0 0 0 0 0 4 1 1 4 14 5 9 16
66 37 51 36 8 0 0 0 0 0 0 0 0 0 0 0 0 0 0 0 0 0 0 0 0 0 0 0 4 33 4 0 1 6 0 0 0 0 5 1 14 23 16 15
46 26 46 44 27 0 0 0 0 0 0 0 0 0 0 0 0 0 0 0 0 0 0 0 0 0 0 0 0 34 6 22 0 0 26 16 7 1 0 0 3 15 17 13
29 17 21 32 31 13 0 0 0 0 0 0 0 0 0 0 0 0 0 5 0 0 0 0 0 0 2 1 1 0 0 0 7 0 3 6 9 1 0 0 7 11 3 6
31 12 9 29 53 22 0 0 0 0 0 0 0 0 0 0 0 0 0 0 0 0 0 7 3 5 0 0 6 10 1 0 1 0 5 0 1 0 4 25 21 18 3 10
43 12 10 9 44 45 9 0 2 17 0 0 0 0 0 0 0 0 0 0 0 0 0 0 0 0 0 0 1 0 5 4 0 5 8 28 9 8 14 28 25 16 11 11
45 30 30 13 51 26 2 0 12 1 0 0 0 0 0 0 0 0 0 0 0 1 0 0 0 0 0 0 1 3 14 0 2 1 6 2 2 2 5 24 20 18 16 16
39 42 26 32 49 24 6 0 6 5 0 0 0 0 0 0 0 0 0 0 0 0 0 1 1 4 0 0 0 0 1 0 0 0 0 0 0 5 5 12 12 7 13 13
57 39 37 59 71 45 9 8 7 10 2 5 0 0 0 0 0 0 0 0 0 0 0 6 1 0 0 0 0 0 4 0 0 0 0 2 0 9 0 4 23 8 10 15
54 22 18 55 73 61 12 6 0 1 2 2 0 0 0 4 0 0 7 1 0 0 0 0 0 0 0 0 0 0 0 0 0 0 0 1 0 0 0 2 1 16 9 6
32 33 55 56 54 12 3 0 0 0 1 1 0 0 1 10 6 1 1 0 5 0 1 0 0 0 3 12 4 1 0 0 0 0 0 0 0 0 0 0 0 5 3 8
21 23 32 64 64 32 9 0 5 2 0 1 0 0 5 10 11 9 0 2 1 2 0 0 0 0 0 5 0 0 0 0 1 0 0 0 0 0 0 0 0 1 4 2
21 26 34 29 11 11 28 34 9 1 1 2 2 0 6 2 9 1 0 0 8 0 1 2 0 0 4 4 0 0 0 0 0 0 0 0 0 0 0 0 0 0 2 1
35 2 0 1 0 53 19 1 11 0 0 4 2 0 7 10 3 0 0 7 4 9 0 0 2 1 1 0 0 0 0 0 0 0 0 0 0 0 0 0 0 0 0 0
6 0 0 0 64 11 8 2 2 0 2 0 0 0 0 12 1 4 0 2 1 2 0 0 1 1 5 0 0 0 0 0 0 0 0 0 0 0 0 0 0 1 0 1
0 4 1 11 12 6 0 0 0 2 0 0 0 0 0 3 0 6 9 6 2 0 2 7 0 3 0 0 0 0 0 0 0 0 0 0 0 0 0 0 0 1 0 0
5 0 3 4 11 5 0 1 3 0 0 3 0 0 0 13 5 6 2 0 0 0 9 0 0 2 0 0 0 0 0 0 0 0 0 0 0 0 0 0 0 0 0 0
1 0 0 0 0 0 0 0 0 0 25 9 0 0 22 10 2 0 0 0 0 0 0 0 1 1 1 0 0 0 0 0 0 0 0 0 0 0 0 0 0 0 0 0
8 2 0 0 0 2 0 23 28 0 21 7 3 0 1 20 1 0 0 3 1 0 0 0 0 1 2 3 1 0 0 0 0 0 0 0 0 0 0 0 0 0 0 0
0 0 0 1 10 1 1 0 0 0 0 6 14 11 1 3 0 3 0 1 0 0 0 0 0 0 0 0 0 0 0 0 0 0 0 0 0 0 0 0 0 0 0 0
0 2 1 0 3 0 0 0 1 0 0 11 2 3 12 0 3 0 0 0 0 0 0 0 0 0 0 0 0 0 0 0 0 0 0 0 0 0 0 0 0 0 0 0